Torna al catalogo

THORAD AGENA D DEB

AttivoUNKNOWN
NORAD 4741·DEBRIS·🇺🇸 United States

Lanciato Apr 8, 1970 da Vandenberg Space Force Base

Loading…

Prossimi Passaggi (prossime 24 ore)

TLE

AggiornatoSource: Space-Track

Epoca: Sep 14, 2026, 11:02 UTC

1 04741U 70025CQ  26257.46033186 -.00000177  00000-0 -81802-3 0  9992
2 04741 100.2908 330.7813 0786552  84.7496 299.3876 11.94708726459865

Traccia THORAD AGENA D DEB in tempo reale con AllMySat

Download on the App Store